COSMOS 2251 DEB

Satellite information

Favourite Embed

Satellite Type and Status

DEBRISIN ORBIT

Key statistics

Satellite COSMOS 2251 DEB at a glance.

Uptime

11709

Days in orbit

Revolutions

≈ 14.4

Per day

Orbit

LEO

Low Earth Orbit

Inclination

74.0

Latest

Satellite identification and parameters

Extended collection of information and parameters for COSMOS 2251 DEB.

Object identification

Identified? True

Debris? True

Object name: COSMOS 2251 DEB

International designator: 1993-036HJ

Object number (NORAD): 34023

Object ID (CCSDS): 34023

Country: COMMONWEALTH OF INDEPENDENT STATES (CIS)

Current information (Y/N): Y

RCS size: SMALL

Orbital parameters

Period: 99.991 minutes

Inclination: 74.0234 deg

SMA: 7136.195 km

Apoapsis: 772.256 km

Periapsis: 743.865 km

RAAN: 186.4655 deg

Eccentricy: 0.0019892

Argument of periapsis: 321.2592 deg

Mean anomaly: 189.5146 deg

Mean motion: 14.4013326 rev/day

Mean motion (dot): 0.00000669 rev/day2

B* drag term: 0.00021985 1/REarth

Two-line elements (TLE)

Creation date: July 6, 2025, 6:05 p.m.

Reference frame: TEME

Reference center: EARTH

Epoch: July 6, 2025, 10:09 a.m. UTC

TLE line 0: 0 COSMOS 2251 DEB

TLE line 1: 1 34023U 93036HJ 25187.42339373 .00000669 00000-0 21985-3 0 9999

TLE line 2: 2 34023 74.0234 186.4655 0019892 321.2592 189.5146 14.40133260859204

Live tracking on map

Real-time ground track for satellite COSMOS 2251 DEB.

In-orbit conjunctions

A list of the most updated potential collisions computed for object COSMOS 2251 DEB.

Target Orbit TCA Probability of collision Miss distance Type
COSMOS 468 DEB LEO 2024-11-12 10:20:47 0.0004364245 902.0 (m) DEBRIS
PSLV R/B LEO 2024-07-28 05:53:47 0.0001799246 218.0 (m) ROCKET BODY

Associated space launch

Military communications satellite. Destroyed in a collision with Iridium 33.

COSMOS 2251 DEB was lifted into orbit during the mission ‘Kosmos-3M | Strela-2M 51’, on board a Kosmos-3M space rocket.

The launch took place on June 16, 1993, 4:17 a.m. from 132/1 (132L).

For more information about the launch, click the button.

Launch to space Kosmos-3M | Strela-2M 51
Kosmos-3M | Strela-2M 51

Agency: N/A

Status: Launch Successful

Launch date: June 16, 1993, 4:17 a.m. UTC

Rocket: Kosmos-3M

Launch pad: 132/1 (132L)

Location: Plesetsk Cosmodrome, Russian Federation

...

Latest news about this satellite

There are no fresh news available about this satellite. Check back as we update our databases every day.


Newsletter sign-up

Weekly statistics, charts and insights to help you stay on top of the space industry.